Wind_Speed
4 3 4 4 3 4 4 4 5 5 6 7 7 8 9 10 11 11 12 12 12 12 12 13 14 15 15 15 17 19 20 21 21 22 23 23 24 25
5 5 5 5 5 5 5 5 6 6 7 7 8 8 9 10 11 11 12 12 12 12 13 14 15 15 15 15 17 18 19 21 22 23 23 24 24 25
6 6 6 6 6 6 7 7 8 8 9 9 10 10 11 11 11 12 12 13 13 14 14 15 16 17 17 17 18 19 21 22 23 24 24 25 25 26
6 7 7 7 8 8 9 9 9 10 11 11 12 12 13 13 13 14 14 14 15 15 16 16 17 18 19 19 20 21 22 23 25 25 26 26 27 28
8 8 8 8 9 10 11 11 11 12 13 13 13 14 15 15 15 16 16 17 18 18 18 19 19 20 20 21 22 23 24 25 25 26 27 28 28 28
9 10 10 10 11 11 12 13 14 14 15 15 15 16 17 17 17 17 18 19 19 20 20 20 21 21 22 23 23 24 25 26 26 27 28 28 29 29
11 11 12 12 13 14 14 15 15 15 16 16 17 17 17 18 18 19 20 20 21 22 22 22 23 23 24 24 25 25 26 27 27 28 29 30 30 31
12 13 13 14 15 15 16 17 17 17 17 18 18 19 19 20 20 20 21 22 22 23 24 25 25 25 26 26 27 27 28 28 29 30 30 31 31 32
15 15 16 16 16 17 17 18 18 18 19 19 19 20 20 20 21 21 22 23 24 25 26 26 27 27 27 28 28 29 30 30 31 32 33 33 32 32
18 18 18 18 18 19 19 19 19 19 20 20 21 22 22 23 24 24 24 25 26 27 28 29 29 29 30 31 31 31 32 32 33 33 34 34 33 33
20 20 20 20 21 21 21 21 21 22 22 23 23 24 25 26 27 27 27 29 29 30 31 31 31 31 32 33 34 34 34 34 34 34 35 36 35 36
22 22 22 22 22 22 22 23 24 24 25 25 26 27 27 29 30 30 30 32 32 33 33 33 33 33 34 35 36 36 36 36 36 36 37 38 38 38
23 23 23 24 24 24 25 26 26 26 27 28 29 30 30 31 33 33 33 34 34 34 34 35 35 36 36 37 37 37 37 38 38 39 40 41 41 41
23 24 24 25 26 27 27 27 28 28 29 30 31 32 33 34 35 35 34 34 34 35 35 36 37 37 38 38 38 38 39 39 40 41 42 43 43 44
25 25 26 26 27 28 29 29 30 31 32 32 33 34 35 36 36 35 34 35 35 36 37 38 38 38 38 39 40 40 41 41 42 43 43 44 45 46
27 27 27 28 29 30 31 31 32 33 34 35 35 36 36 36 36 36 36 37 38 38 39 40 40 40 41 41 42 43 44 44 44 45 46 46 47 48
28 28 29 30 31 32 33 34 34 35 36 37 37 37 37 37 38 38 38 39 40 40 41 42 42 43 43 44 45 46 47 47 47 47 47 48 49 50
29 30 31 32 32 33 34 35 36 37 37 38 38 38 38 38 38 39 40 41 43 44 44 45 46 46 46 47 48 48 48 49 49 49 50 50 50 50
31 32 33 34 34 35 36 36 37 38 38 38 38 38 39 40 41 42 43 44 45 46 47 48 49 49 50 49 49 50 51 51 51 51 51 51 51 52
33 34 35 36 36 37 38 38 39 39 40 40 40 41 42 43 44 45 46 47 47 48 48 49 50 50 51 52 51 51 52 52 52 52 52 52 52 52
35 36 37 38 38 39 40 40 41 42 42 42 43 44 45 46 47 47 48 48 49 49 49 49 50 51 52 52 52 51 52 53 53 53 53 53 52 53
37 38 38 39 40 40 41 41 41 42 43 44 44 45 46 47 47 48 48 49 49 50 50 50 50 51 51 52 52 52 52 53 53 53 54 54 54 54
39 39 40 41 41 41 41 42 43 44 45 46 47 47 47 48 48 48 49 50 51 51 51 50 51 51 51 51 52 52 51 52 52 52 53 54 54 54
Wind_Direction
294 293 292 293 294 295 286 281 280 281 284 282 282 280 275 272 272 271 272 272 273 270 273 276 274 272 269 265 261 260 262 265 264 264 265 267 267 267
281 282 286 288 290 294 289 285 286 286 289 287 286 285 284 278 275 274 275 275 277 277 278 278 278 279 276 272 267 266 265 267 268 270 270 271 271 271
280 281 284 286 290 293 291 289 290 289 288 287 286 285 287 283 277 277 279 278 279 281 282 281 279 278 276 274 272 271 271 271 272 273 273 273 273 273
279 278 283 288 288 288 287 288 290 289 289 288 286 285 288 288 283 280 282 281 281 280 283 284 282 280 279 279 277 277 276 275 274 274 274 274 274 274
279 278 281 285 289 289 288 286 287 288 290 289 288 287 288 288 286 284 283 285 284 283 283 285 284 281 280 280 280 280 280 279 278 279 278 276 277 276
277 279 283 286 288 289 289 289 287 286 288 290 289 287 286 287 286 284 283 284 285 285 284 285 285 284 283 282 282 282 282 281 281 282 282 281 282 278
277 281 283 286 288 290 290 291 291 291 291 292 291 290 289 289 287 286 286 286 287 287 286 286 286 286 285 283 282 282 282 282 282 283 283 283 282 280
277 281 285 288 289 291 289 289 288 290 291 291 289 290 289 289 288 288 288 288 289 289 289 289 289 288 288 287 285 285 284 283 284 284 284 285 283 282
278 281 284 287 289 292 290 288 288 288 289 290 290 290 290 290 289 289 289 290 290 290 290 290 290 290 290 289 288 288 287 286 286 286 286 286 283 282
278 280 282 284 286 287 288 288 288 288 289 290 290 290 290 289 288 289 289 290 291 292 291 291 291 291 292 290 289 288 287 287 287 286 286 286 285 284
279 280 281 283 285 287 287 287 287 287 288 290 291 290 289 288 287 289 288 289 290 291 291 291 291 292 291 290 289 288 287 287 286 286 287 287 286 285
278 279 280 283 284 286 287 288 289 289 289 290 291 290 289 289 288 290 290 290 291 291 290 290 291 291 291 290 289 287 287 286 286 286 286 286 285 284
277 278 279 281 283 285 287 288 289 290 290 291 292 292 291 289 289 291 291 290 290 289 289 290 291 292 292 290 288 287 287 286 286 285 285 286 285 284
279 279 280 280 282 285 287 288 289 290 291 291 292 292 291 290 289 290 291 290 290 290 289 290 291 292 292 291 290 288 288 288 287 287 287 286 285 285
280 279 281 282 284 286 287 288 289 290 291 291 291 292 292 291 290 290 290 290 290 291 291 290 291 291 292 292 291 290 290 289 289 288 288 288 287 286
280 280 281 283 284 286 287 288 289 290 291 291 292 292 292 291 290 290 290 290 290 291 292 291 291 291 292 293 293 292 291 290 289 289 289 289 288 288
281 281 282 283 284 285 287 288 289 290 291 291 292 292 291 291 291 291 291 291 291 291 291 291 291 291 292 293 293 293 293 291 290 290 289 289 289 289
281 282 284 285 285 286 288 289 290 291 292 293 293 292 291 291 291 290 291 291 291 291 291 291 291 291 291 291 293 293 292 292 290 290 289 290 290 290
283 284 285 286 287 288 288 289 290 292 292 293 293 293 293 292 292 291 291 292 292 292 292 291 291 291 291 291 291 292 292 292 291 290 290 290 290 290
283 284 286 286 287 288 288 289 290 291 292 292 292 293 293 293 293 292 292 292 293 293 292 291 291 291 292 292 292 292 292 292 292 291 291 290 291 291
284 285 286 286 287 288 289 290 290 291 291 291 291 292 293 293 293 293 293 293 293 293 293 292 291 291 292 292 291 292 292 292 292 292 292 292 292 292
285 286 287 287 288 289 290 290 291 292 291 291 292 292 293 294 294 294 293 293 293 293 293 293 292 292 292 291 291 291 292 292 292 293 293 293 293 293
286 286 287 288 289 289 290 291 292 292 292 292 293 293 293 294 294 294 294 294 293 294 294 294 294 293 293 292 292 292 293 293 293 293 293 293 294 295
Height
5872 5871 5870 5870 5869 5869 5868 5868 5868 5867 5866 5865 5864 5863 5862 5862 5861 5861 5861 5860 5859 5859 5858 5857 5855 5854 5852 5851 5851 5852 5854 5854 5855 5855 5855 5854 5853 5853
5871 5870 5870 5869 5868 5868 5867 5866 5866 5865 5864 5863 5862 5861 5860 5859 5859 5858 5858 5857 5857 5856 5855 5853 5852 5851 5850 5849 5849 5849 5849 5849 5850 5850 5849 5849 5847 5846
5870 5869 5869 5868 5867 5866 5866 5865 5864 5863 5862 5861 5860 5859 5858 5856 5856 5855 5855 5854 5853 5852 5851 5850 5849 5848 5847 5846 5845 5845 5844 5844 5844 5844 5843 5842 5841 5840
5868 5868 5867 5866 5866 5865 5864 5863 5862 5861 5860 5858 5857 5856 5855 5854 5853 5852 5851 5851 5850 5849 5848 5846 5845 5843 5842 5841 5840 5840 5839 5838 5838 5837 5837 5836 5835 5834
5866 5866 5865 5865 5864 5863 5862 5861 5859 5858 5857 5855 5854 5853 5852 5850 5849 5849 5848 5847 5845 5844 5843 5842 5840 5839 5837 5836 5835 5834 5833 5832 5831 5830 5830 5829 5828 5827
5864 5863 5863 5862 5861 5860 5859 5858 5856 5855 5853 5852 5851 5849 5848 5846 5845 5844 5843 5842 5841 5839 5838 5837 5835 5834 5832 5831 5829 5828 5827 5826 5825 5824 5823 5821 5820 5819
5861 5861 5860 5859 5858 5857 5856 5854 5853 5851 5850 5848 5847 5845 5844 5842 5841 5840 5838 5837 5836 5834 5832 5831 5829 5828 5826 5824 5823 5821 5820 5818 5817 5816 5815 5813 5812 5810
5858 5858 5857 5856 5855 5854 5852 5851 5849 5848 5846 5844 5842 5841 5839 5837 5836 5834 5833 5832 5830 5829 5826 5825 5823 5821 5819 5817 5816 5814 5812 5811 5809 5808 5806 5804 5802 5801
5855 5854 5853 5852 5851 5849 5848 5846 5845 5843 5841 5840 5838 5836 5834 5832 5830 5829 5827 5825 5824 5822 5820 5818 5816 5814 5811 5809 5807 5806 5804 5802 5800 5798 5796 5795 5792 5791
5850 5849 5848 5847 5846 5845 5843 5841 5840 5838 5836 5834 5832 5830 5828 5826 5824 5822 5820 5819 5817 5814 5812 5810 5808 5806 5803 5801 5799 5796 5795 5793 5791 5788 5786 5784 5782 5780
5845 5844 5843 5842 5841 5839 5838 5836 5834 5832 5830 5828 5826 5823 5821 5819 5817 5815 5813 5811 5809 5807 5804 5801 5799 5797 5794 5792 5789 5786 5784 5782 5780 5778 5776 5774 5771 5770
5839 5838 5837 5836 5835 5833 5832 5830 5828 5826 5824 5822 5819 5817 5814 5812 5809 5807 5804 5802 5800 5797 5794 5792 5790 5787 5785 5782 5779 5776 5774 5772 5770 5768 5765 5763 5760 5758
5833 5832 5831 5830 5828 5827 5825 5823 5821 5818 5816 5814 5811 5809 5806 5803 5800 5797 5795 5792 5790 5787 5785 5782 5779 5776 5773 5771 5768 5765 5762 5760 5758 5756 5754 5751 5748 5746
5826 5825 5824 5822 5821 5819 5817 5815 5813 5811 5808 5806 5803 5800 5797 5794 5791 5788 5785 5782 5780 5777 5774 5771 5768 5765 5762 5759 5757 5754 5751 5748 5745 5743 5740 5738 5735 5732
5819 5818 5816 5815 5813 5811 5809 5807 5805 5802 5800 5797 5794 5791 5787 5784 5781 5778 5775 5772 5770 5767 5764 5760 5757 5754 5751 5748 5745 5742 5739 5736 5732 5729 5727 5724 5720 5718
5811 5810 5809 5807 5805 5803 5801 5798 5796 5793 5790 5787 5784 5781 5777 5774 5771 5768 5765 5762 5759 5757 5753 5749 5745 5742 5739 5736 5732 5729 5725 5722 5719 5715 5712 5709 5705 5701
5803 5802 5800 5798 5796 5794 5791 5789 5786 5783 5780 5777 5773 5770 5766 5763 5760 5757 5754 5751 5748 5745 5741 5738 5734 5730 5727 5723 5720 5716 5712 5708 5704 5701 5697 5694 5691 5686
5795 5793 5791 5789 5787 5784 5782 5779 5776 5773 5769 5766 5763 5759 5756 5753 5749 5746 5743 5739 5736 5732 5728 5724 5721 5717 5714 5711 5706 5702 5698 5694 5690 5686 5682 5678 5675 5671
5785 5783 5781 5779 5777 5774 5771 5768 5765 5762 5758 5755 5752 5749 5745 5742 5738 5734 5731 5727 5723 5719 5714 5710 5706 5702 5699 5696 5693 5687 5682 5679 5675 5671 5666 5662 5659 5655
5775 5773 5771 5768 5766 5763 5760 5757 5754 5751 5747 5744 5740 5737 5733 5729 5725 5722 5718 5713 5709 5704 5700 5695 5691 5686 5682 5679 5676 5672 5667 5662 5658 5655 5650 5646 5642 5638
5765 5762 5760 5757 5755 5752 5749 5746 5742 5739 5735 5732 5728 5724 5720 5716 5712 5708 5703 5699 5694 5689 5685 5680 5675 5671 5666 5662 5659 5656 5651 5646 5641 5637 5633 5629 5626 5622
5754 5751 5749 5746 5743 5740 5737 5733 5730 5726 5723 5719 5715 5711 5706 5702 5698 5693 5688 5684 5679 5674 5669 5664 5660 5655 5651 5646 5643 5639 5636 5631 5626 5621 5616 5612 5607 5604
5742 5740 5737 5734 5731 5728 5724 5721 5717 5713 5709 5705 5701 5697 5692 5688 5683 5678 5673 5669 5664 5659 5654 5650 5645 5640 5635 5631 5627 5623 5619 5615 5610 5606 5602 5597 5591 5586